Wind_Speed
16 15 17 14 10 7 7 9 10 11 11 13 15 16 17 16 16 17 19 19 20 20 21 23 25 26 28 30 33 36 38 42 43 47 49 47 46 49 50 50 50 48 45 45 43
15 16 16 16 15 10 9 10 11 13 13 16 17 18 18 16 15 17 19 21 23 24 24 25 28 29 32 34 37 40 43 49 51 55 56 56 53 54 54 54 53 53 48 48 50
14 16 17 16 15 16 14 12 12 12 15 17 18 19 19 19 17 19 21 23 25 26 27 28 27 29 30 34 38 44 48 47 47 56 60 61 61 62 61 59 60 59 56 54 52
14 16 15 15 14 14 14 14 14 15 17 17 19 20 21 22 24 25 26 27 27 27 27 28 27 31 35 40 46 49 49 51 47 48 51 56 62 66 67 67 69 67 62 62 59
15 16 16 15 15 14 14 15 15 16 17 18 21 23 22 22 22 24 24 24 24 25 26 27 31 34 39 46 49 50 50 45 38 40 42 45 44 51 62 72 74 73 69 66 64
16 17 17 16 15 14 14 15 16 16 17 20 23 25 24 24 25 26 24 23 23 24 26 29 32 37 43 47 47 44 37 34 33 32 30 33 33 43 36 48 65 75 76 74 70
16 17 17 17 17 17 16 15 17 19 19 21 25 26 25 26 27 30 26 24 24 25 28 30 34 39 44 45 38 32 29 22 23 28 18 18 17 24 29 36 39 52 71 80 77
17 18 18 18 18 17 17 18 19 20 21 22 25 27 26 27 27 31 28 24 24 27 30 32 36 40 40 40 34 27 27 20 25 28 21 23 19 22 24 25 35 42 47 66 80
17 18 19 19 18 18 18 18 19 21 21 23 25 25 25 26 29 30 26 25 26 29 33 35 38 38 37 33 31 26 26 24 26 27 29 30 26 24 28 29 31 29 40 49 59
17 18 19 20 20 19 20 21 23 25 24 25 27 25 23 26 30 31 30 30 30 32 35 37 37 32 28 26 26 26 27 27 26 27 31 33 36 37 34 34 32 38 37 38 50
18 18 18 17 18 20 22 26 26 25 26 26 26 24 26 29 31 32 32 32 32 33 34 36 32 25 23 24 25 29 28 25 24 27 32 36 40 39 37 37 39 38 38 43 42
19 19 19 19 20 23 25 26 28 29 27 27 26 28 28 30 31 32 34 33 33 33 33 28 25 22 22 24 28 27 19 20 20 26 30 33 39 35 36 39 41 38 42 46 49
21 22 23 23 24 25 28 30 31 30 27 29 28 30 30 34 36 35 35 35 32 31 29 23 20 21 23 28 24 20 20 17 20 25 28 39 38 30 36 36 37 36 37 40 42
24 24 24 24 26 28 30 31 33 32 30 30 32 32 34 38 39 39 38 36 32 28 25 21 19 22 26 27 20 15 16 18 23 28 29 34 39 33 34 31 29 31 34 36 36
24 25 27 28 30 31 32 33 34 33 37 33 33 35 39 42 42 42 39 36 31 27 24 17 19 21 24 25 20 15 19 21 23 22 29 26 35 28 30 25 25 28 31 34 39
27 28 30 33 35 34 33 35 37 36 36 35 36 37 41 44 44 42 39 34 29 26 22 18 19 20 21 24 22 22 22 22 20 25 30 34 30 24 30 26 28 27 32 37 43
31 31 32 33 34 34 36 37 37 36 37 37 38 40 41 40 41 37 33 30 27 22 20 21 21 20 20 20 23 24 25 27 21 27 24 23 24 28 22 31 25 25 29 34 32
33 33 32 34 34 35 35 37 37 37 36 38 38 38 38 37 36 33 29 28 24 22 19 16 22 23 21 22 21 19 21 22 24 33 23 16 25 28 29 29 22 26 26 26 19
34 37 36 35 36 36 37 37 35 36 37 36 36 35 34 33 34 32 26 24 23 21 18 15 19 24 20 20 23 22 19 21 24 29 27 29 19 24 36 35 24 22 21 18 10
36 38 39 39 39 38 38 35 34 33 32 33 32 30 30 28 26 26 24 22 21 20 19 16 14 24 23 21 21 20 20 18 19 29 29 22 23 23 31 26 29 17 13 12 8
40 44 45 42 41 39 35 35 33 31 28 26 24 25 25 23 23 24 21 20 20 20 20 18 20 17 18 17 20 20 18 23 21 22 27 31 30 32 28 32 38 20 9 7 1
47 46 45 43 41 36 33 30 29 28 23 20 20 22 20 18 19 22 23 23 20 18 18 19 23 19 14 17 16 16 20 25 23 22 23 28 27 26 33 34 32 25 9 6 6
45 39 35 32 32 30 27 25 23 22 20 18 20 19 17 18 20 22 23 25 23 21 19 20 23 17 14 16 14 13 17 21 18 20 22 29 29 26 40 31 24 14 9 4 9
37 33 29 26 24 24 23 22 22 22 22 21 20 19 15 17 19 21 24 25 24 20 19 17 23 21 14 14 11 10 15 18 18 21 24 25 30 28 41 32 11 11 5 6 9
30 26 24 24 21 20 20 20 21 23 23 22 19 19 16 15 16 19 22 22 25 21 17 17 23 19 19 16 14 13 17 22 17 17 20 23 29 24 35 7 14 10 8 5 9
25 22 22 22 22 21 21 20 21 22 22 21 20 20 18 18 19 18 18 21 23 21 15 16 19 18 18 17 16 16 18 22 15 15 18 20 22 24 25 9 14 12 10 8 6
25 24 23 21 22 22 23 21 21 21 21 18 17 18 18 19 19 19 19 20 22 19 15 17 16 18 17 17 16 15 19 19 17 18 17 16 20 27 24 4 10 11 15 12 5
Wind_Direction
23 21 24 16 2 344 328 321 323 322 330 336 339 338 334 323 305 296 296 291 288 285 284 286 285 282 280 281 279 279 278 275 271 270 264 259 254 253 252 251 252 250 244 240 238
18 14 12 13 14 358 341 334 332 335 335 336 337 334 329 319 305 295 289 287 285 283 281 282 282 281 283 284 284 282 280 276 272 266 264 261 255 253 252 250 249 249 246 241 235
8 5 4 0 359 5 3 356 347 347 350 347 343 340 334 322 307 293 287 287 282 278 277 284 285 285 291 292 291 290 298 292 278 268 263 258 255 251 249 249 248 244 243 241 239
346 347 347 350 347 348 351 350 349 348 348 344 342 339 332 317 306 297 292 290 287 280 275 291 296 303 305 303 306 310 305 301 294 283 275 266 257 251 247 244 242 243 240 239 237
337 345 348 345 344 340 339 340 344 343 341 342 341 337 330 320 313 309 304 299 291 288 286 298 303 308 308 313 316 314 308 302 298 292 287 281 273 264 253 246 240 240 239 238 237
346 346 346 346 343 340 338 339 339 341 342 341 338 337 334 329 330 328 322 314 309 303 296 300 304 308 312 318 318 315 309 306 306 316 324 304 284 273 267 257 251 241 236 235 235
343 343 343 343 341 338 338 339 338 338 339 335 331 333 332 332 332 330 325 316 314 310 305 303 308 312 315 322 319 314 312 302 307 328 336 346 325 278 275 270 266 253 245 235 234
335 337 337 337 336 336 337 340 340 339 339 332 331 331 332 333 334 335 331 327 320 318 316 314 315 318 322 324 317 314 307 294 301 314 308 314 316 302 302 287 275 265 256 244 239
331 333 334 333 333 335 336 339 341 339 336 333 331 332 335 333 342 344 337 336 335 334 331 327 323 324 324 323 315 311 302 279 294 303 306 309 311 299 292 293 285 276 273 259 242
325 331 335 338 338 338 337 339 338 338 332 332 332 333 334 340 342 342 344 344 339 334 331 329 327 325 323 319 312 300 303 288 286 292 299 305 308 301 289 292 286 268 268 278 261
319 324 327 331 333 334 333 332 332 333 330 329 331 334 335 338 341 340 342 339 335 330 329 327 327 322 316 310 308 305 290 286 272 289 294 308 302 303 307 295 291 287 268 263 265
316 319 321 321 321 324 327 329 329 329 328 328 329 330 337 341 341 340 338 334 332 329 328 327 324 316 311 309 307 299 280 271 280 292 301 311 305 307 299 290 286 282 277 267 262
312 311 314 317 319 320 325 325 326 327 326 328 331 334 338 338 337 336 333 331 328 325 326 322 319 309 307 309 313 298 274 281 301 302 309 316 311 313 300 286 281 281 277 273 265
318 316 317 320 321 322 322 325 327 325 324 327 330 332 335 335 331 332 329 328 325 325 325 319 307 297 309 318 314 298 289 289 299 306 322 314 311 322 305 296 287 287 280 278 267
319 319 318 318 319 321 324 326 328 326 325 329 329 331 331 332 331 327 327 326 323 325 325 310 298 295 312 319 321 304 306 299 307 313 315 318 305 316 308 298 294 290 288 285 274
315 315 315 317 318 318 321 325 327 326 327 327 328 329 329 329 326 325 326 323 322 325 326 313 301 304 312 314 317 313 308 299 307 313 346 344 325 323 317 316 310 296 291 290 284
317 316 318 318 321 323 323 323 325 327 329 328 328 328 326 324 322 322 322 319 320 328 329 321 308 300 306 314 312 307 309 303 323 338 347 354 333 319 328 322 312 311 308 303 289
318 317 318 319 322 324 325 324 323 325 324 324 323 321 320 321 319 320 322 322 321 327 331 316 299 293 300 306 310 309 316 310 333 336 342 341 360 343 330 337 320 330 325 322 321
317 316 315 315 316 318 320 322 322 322 321 319 319 319 320 322 323 323 322 321 322 328 335 331 305 297 301 309 318 319 329 316 320 331 352 354 340 349 341 335 331 335 337 333 339
311 309 310 311 311 314 317 317 317 318 317 318 319 320 323 327 327 326 328 327 328 333 338 340 325 301 302 309 317 320 329 321 306 332 343 345 339 331 337 333 334 325 354 349 336
314 314 310 306 307 309 312 314 314 313 313 315 320 325 330 337 338 339 338 333 335 335 338 339 328 308 303 305 313 312 326 321 318 321 336 326 340 334 342 328 329 322 18 45 61
316 312 310 304 304 306 308 312 311 310 313 317 324 330 336 344 345 345 343 340 341 337 339 337 323 328 306 317 318 309 316 321 317 313 333 326 349 348 346 322 315 327 25 92 125
319 320 313 308 305 306 308 309 308 308 312 317 326 329 340 343 343 351 344 339 345 340 342 338 330 339 329 339 333 322 317 313 309 306 320 329 342 337 347 334 324 333 43 84 141
320 321 316 313 311 310 308 308 307 310 313 315 317 318 333 340 348 350 347 343 349 348 348 343 333 337 338 341 330 332 338 330 320 308 315 328 336 336 351 336 6 5 82 108 136
319 321 323 321 318 315 312 310 311 314 316 318 316 310 313 324 340 344 345 346 346 344 344 345 338 337 332 338 341 351 342 346 331 312 322 335 336 3 3 14 37 45 60 117 159
315 317 318 319 317 315 316 321 317 317 314 317 320 316 317 321 329 339 346 350 347 345 340 344 338 336 334 344 344 344 345 353 348 334 329 335 343 350 359 292 13 54 72 111 149
308 310 311 317 318 317 317 320 322 321 319 323 319 317 317 323 326 331 340 345 349 350 339 343 346 342 329 335 345 337 349 349 332 335 341 342 344 350 12 286 22 64 101 119 146
Height
5863 5861 5859 5857 5855 5854 5853 5852 5851 5850 5848 5847 5845 5844 5841 5839 5838 5837 5837 5835 5834 5832 5832 5830 5830 5829 5828 5827 5825 5823 5822 5820 5820 5815 5815 5818 5819 5817 5817 5819 5820 5823 5830 5832 5836
5863 5861 5859 5857 5855 5853 5852 5850 5849 5847 5846 5844 5843 5841 5838 5836 5834 5833 5832 5831 5829 5828 5827 5825 5824 5822 5821 5818 5816 5814 5813 5807 5807 5800 5799 5803 5807 5807 5807 5807 5811 5811 5819 5821 5822
5863 5861 5859 5857 5854 5852 5850 5848 5847 5845 5844 5842 5839 5837 5835 5832 5831 5828 5827 5825 5823 5821 5820 5818 5816 5815 5813 5809 5806 5801 5797 5793 5790 5785 5785 5786 5789 5791 5794 5797 5796 5798 5804 5808 5812
5861 5859 5857 5855 5853 5851 5849 5847 5845 5844 5842 5840 5838 5835 5832 5829 5827 5823 5821 5819 5817 5815 5813 5811 5808 5806 5802 5798 5792 5789 5784 5778 5773 5771 5770 5770 5771 5774 5774 5781 5779 5783 5790 5793 5798
5859 5857 5855 5853 5851 5849 5847 5845 5843 5842 5840 5837 5834 5832 5829 5826 5821 5817 5815 5812 5810 5808 5806 5804 5801 5798 5793 5788 5782 5776 5772 5766 5761 5758 5757 5755 5755 5755 5759 5754 5761 5769 5776 5780 5785
5858 5855 5853 5851 5849 5847 5845 5843 5841 5838 5836 5834 5830 5827 5824 5821 5816 5812 5809 5806 5803 5802 5799 5797 5794 5791 5786 5780 5773 5766 5762 5757 5753 5752 5749 5746 5744 5737 5743 5741 5743 5749 5756 5763 5768
5856 5854 5851 5849 5847 5845 5842 5840 5838 5836 5833 5830 5826 5823 5819 5815 5811 5806 5803 5801 5798 5795 5793 5790 5787 5783 5778 5772 5765 5760 5757 5751 5748 5747 5746 5741 5735 5730 5733 5732 5731 5733 5737 5744 5750
5854 5852 5850 5847 5845 5843 5840 5838 5835 5833 5830 5826 5822 5819 5815 5810 5807 5803 5797 5796 5793 5791 5788 5784 5780 5776 5770 5763 5758 5754 5751 5747 5744 5743 5740 5737 5733 5729 5726 5725 5724 5721 5722 5726 5733
5852 5850 5847 5845 5842 5840 5838 5836 5833 5831 5827 5823 5820 5816 5812 5808 5804 5800 5796 5792 5788 5785 5781 5778 5773 5768 5763 5757 5752 5749 5747 5743 5740 5736 5732 5729 5727 5724 5720 5717 5715 5714 5710 5709 5715
5850 5848 5845 5842 5840 5837 5835 5833 5830 5827 5824 5819 5815 5814 5809 5806 5801 5796 5792 5787 5784 5779 5776 5771 5766 5760 5756 5752 5748 5744 5739 5737 5735 5732 5726 5721 5718 5712 5710 5709 5706 5703 5702 5699 5700
5848 5845 5843 5840 5837 5834 5832 5828 5827 5825 5820 5816 5812 5809 5805 5800 5796 5791 5787 5783 5778 5774 5769 5764 5760 5754 5750 5746 5741 5737 5734 5730 5728 5725 5718 5716 5709 5705 5702 5698 5694 5693 5691 5690 5688
5844 5842 5840 5837 5835 5832 5829 5825 5822 5819 5815 5811 5807 5803 5800 5796 5792 5786 5782 5778 5772 5767 5762 5758 5753 5748 5743 5739 5735 5729 5726 5724 5723 5720 5715 5709 5701 5698 5692 5685 5683 5681 5677 5677 5676
5840 5838 5836 5833 5831 5828 5824 5821 5817 5813 5810 5806 5802 5798 5794 5790 5785 5781 5776 5771 5766 5761 5756 5751 5747 5741 5738 5733 5727 5722 5719 5719 5716 5711 5708 5699 5691 5689 5679 5673 5671 5668 5665 5662 5662
5836 5834 5831 5829 5828 5823 5820 5816 5812 5808 5804 5801 5796 5792 5788 5783 5780 5774 5768 5765 5760 5755 5749 5745 5740 5736 5731 5726 5721 5718 5716 5712 5709 5704 5699 5689 5681 5678 5669 5665 5661 5658 5654 5650 5648
5832 5829 5826 5823 5821 5818 5815 5810 5806 5803 5799 5796 5792 5786 5781 5777 5772 5766 5761 5756 5751 5748 5744 5740 5734 5730 5726 5720 5715 5713 5711 5708 5704 5698 5692 5684 5674 5670 5661 5656 5653 5648 5644 5640 5635
5828 5825 5822 5818 5815 5812 5809 5806 5802 5799 5793 5790 5785 5780 5775 5769 5763 5758 5753 5749 5745 5741 5737 5733 5729 5724 5721 5715 5710 5706 5705 5702 5698 5692 5683 5673 5665 5660 5653 5649 5643 5639 5634 5625 5616
5822 5819 5817 5813 5810 5806 5803 5800 5798 5793 5788 5784 5779 5775 5769 5764 5757 5752 5748 5743 5740 5736 5731 5726 5722 5719 5716 5712 5706 5702 5698 5692 5692 5684 5680 5669 5661 5655 5648 5641 5634 5629 5622 5610 5596
5815 5813 5811 5808 5804 5801 5798 5794 5791 5786 5781 5776 5772 5766 5761 5757 5751 5745 5741 5737 5734 5731 5727 5723 5717 5714 5710 5708 5705 5699 5695 5688 5682 5676 5673 5666 5657 5649 5641 5633 5626 5618 5609 5596 5585
5808 5805 5802 5800 5797 5794 5790 5786 5783 5778 5774 5770 5765 5760 5755 5749 5744 5739 5736 5732 5728 5725 5723 5718 5713 5707 5705 5701 5698 5693 5690 5685 5678 5677 5665 5659 5653 5646 5633 5624 5618 5613 5604 5594 5587
5804 5799 5795 5792 5789 5786 5783 5779 5775 5770 5766 5762 5758 5755 5750 5745 5739 5734 5730 5727 5723 5719 5716 5713 5710 5702 5699 5696 5694 5689 5685 5683 5678 5669 5661 5658 5649 5639 5633 5622 5616 5609 5603 5595 5590
5797 5791 5788 5784 5781 5778 5775 5771 5767 5764 5760 5757 5752 5748 5744 5740 5734 5731 5728 5724 5720 5716 5712 5708 5704 5701 5695 5693 5689 5685 5681 5677 5673 5670 5661 5650 5648 5638 5630 5621 5612 5604 5600 5596 5592
5787 5783 5779 5775 5773 5769 5766 5763 5760 5757 5755 5752 5749 5744 5740 5737 5732 5728 5724 5719 5717 5713 5709 5705 5699 5695 5691 5689 5685 5681 5677 5674 5670 5666 5660 5652 5647 5636 5628 5619 5611 5603 5600 5597 5595
5777 5773 5770 5767 5764 5761 5759 5757 5754 5752 5750 5747 5744 5741 5737 5733 5730 5725 5721 5716 5712 5708 5705 5700 5695 5692 5688 5686 5681 5677 5675 5671 5668 5663 5659 5650 5644 5634 5625 5614 5608 5603 5601 5597 5598
5769 5766 5763 5760 5758 5756 5754 5752 5749 5748 5746 5743 5740 5737 5734 5729 5725 5722 5717 5713 5709 5704 5701 5696 5691 5687 5686 5684 5681 5676 5673 5669 5664 5660 5656 5649 5640 5633 5623 5612 5608 5604 5602 5600 5600
5763 5760 5758 5755 5754 5752 5750 5748 5745 5743 5741 5738 5736 5732 5730 5727 5723 5719 5715 5710 5705 5701 5698 5694 5689 5685 5682 5680 5677 5673 5670 5665 5661 5657 5653 5647 5639 5631 5623 5614 5611 5609 5606 5603 5602
5758 5756 5754 5752 5751 5748 5745 5743 5740 5739 5737 5735 5732 5728 5725 5723 5719 5716 5712 5708 5704 5699 5696 5692 5688 5684 5680 5678 5674 5671 5668 5663 5660 5656 5651 5645 5640 5630 5623 5617 5615 5613 5611 5607 5607
5752 5750 5749 5747 5745 5743 5741 5738 5736 5735 5733 5731 5729 5726 5722 5719 5716 5711 5708 5705 5701 5697 5693 5690 5687 5683 5679 5675 5672 5670 5667 5663 5660 5655 5650 5645 5639 5632 5626 5621 5617 5617 5616 5613 5612